SCP
-0 -0 -0 -0 -0 -0 -0 -0 0 0 0 0 0 0 0 -0 0 0 0 0 0 0 0 0 0 0 0 0 0 0 0 0 0 0 0 0 -0 -0 -0 -0 -0 -0 -0
-0 -0 -0 -0 -0 -0 -0 -0 -0 0 0 0 0 0 0 0 0 0 0 0 0 0 0 0 0 0 0 0 0 0 0 0 0 0 0 -0 -0 -0 -0 -0 -0 -0 -0
-0 -0 -0 -0 -0 -0 -0 -0 -0 -0 -0 -0 0 0 0 0 0 0 0 0 0 0 0 0 0 0 0 0 0 0 0 0 0 0 -0 0 0 0 0 0 0 -0 -0
-0 -0 -0 -0 -0 -0 -0 -0 -0 -0 -0 -0 -0 -0 0 0 0 0 0 0 0 0 0 0 0 0 0 0 0 0 0 0 0 0 0 0 0 0 0 0 0 0 0
-0 -0 -0 -0 -0 -0 -0 -0 -0 -0 -0 -0 -0 -0 -0 0 0 0 0 0 0 0 0 0 0 0 0 0 0 0 0 0 0 0 0 0 0 0 0 0 0 0 0
-0 -0 -0 -0 0 -0 -0 -0 -0 -0 -0 -0 -0 -0 0 0 0 0 0 0 0 0 0 0 0 0 0 0 0 0 0 0 0 0 0 0 0 0 0 0 0 0 0
-0 -0 -0 -0 0 0 -0 -0 0 0 -0 -0 0 0 0 0 0 0 0 0 0 0 0 0 0 0 0 0 0 0 0 0 0 0 0 0 0 0 0 0 0 0 0
-0 -0 -0 -0 -0 0 0 0 0 0 0 0 0 0 0 0 0 0 0 0 0 0 0 0 0 0 0 0 0 0 0 0 0 0 0 0 0 0 0 0 0 0 0
0 -0 -0 -0 -0 0 0 0 0 0 0 0 0 0 0 0 0 0 0 0 0 0 0 0 0 0 0 0 0 0 0 0 0 0 0 0 0 0 0 0 0 0 0
0 0 0 0 -0 -0 -0 0 0 0 0 0 0 0 0 0 0 0 0 0 0 0 0 0 0 0 0 0 0 0 0 0 0 0 0 0 0 0 0 0 0 0 0
0 0 0 0 0 0 0 0 0 0 0 0 0 0 0 0 0 0 0 0 0 0 0 0 0 0 0 0 0 0 0 0 0 0 0 0 0 0 0 0 0 0 0
0 0 0 0 0 0 0 0 0 0 0 0 0 0 0 0 0 0 0 0 0 0 0 0 0 0 0 0 0 0 0 0 0 0 0 0 0 0 0 0 0 0 0
0 0 0 0 0 0 0 0 0 0 0 0 0 0 0 0 0 0 0 0 0 0 0 0 0 0 0 0 0 0 0 0 0 0 0 0 0 0 0 0 0 0 0
0 0 0 0 0 0 0 0 0 0 0 0 0 0 0 0 0 0 0 0 0 0 0 0 0 0 0 0 0 0 0 0 0 0 0 0 0 0 0 0 0 0 0
0 0 0 0 0 0 0 0 0 0 0 0 0 0 0 0 0 0 0 0 0 0 0 0 0 0 0 0 0 0 0 0 0 0 0 0 0 0 0 0 0 0 0
0 0 0 0 0 0 0 0 0 0 0 0 0 0 0 0 0 0 0 0 0 0 0 0 0 0 0 0 0 0 0 0 0 0 0 0 0 0 0 0 0 0 0
0 0 0 0 0 0 0 0 0 0 0 0 0 0 0 0 0 0 0 0 0 0 0 0 0 0 0 0 0 0 0 0 0 0 0 0 0 0 0 0 0 0 0
0 0 0 0 0 0 0 0 0 0 0 0 0 0 0 0 0 0 0 0 0 0 0 0 0 0 0 0 0 0 0 0 0 0 0 0 0 0 0 0 0 0 0
0 0 0 0 0 0 0 0 0 0 0 0 0 0 0 0 0 0 0 0 0 0 0 0 0 0 0 0 0 0 0 0 0 0 0 0 0 0 0 0 0 0 0
0 0 0 0 0 0 0 0 0 0 0 0 0 0 0 0 0 0 0 0 0 0 0 0 0 0 0 0 0 0 0 0 0 0 0 0 0 0 0 0 0 0 0
0 0 0 0 0 0 0 0 0 0 0 0 0 0 0 0 0 0 0 0 0 0 0 0 0 0 0 0 0 0 0 0 0 0 0 0 0 0 0 0 0 0 0
0 0 0 0 0 0 0 0 0 0 0 0 0 0 0 0 0 0 0 0 0 0 0 0 0 0 0 0 0 0 0 0 0 0 0 0 0 0 0 0 0 0 0
0 0 0 0 0 0 0 0 0 0 0 0 0 0 0 0 0 0 0 0 0 0 0 0 0 0 0 0 0 0 0 0 0 0 0 0 0 0 0 0 0 0 0
0 0 0 0 0 0 0 0 0 0 0 0 0 0 0 0 0 0 0 0 0 0 0 0 0 0 0 0 0 0 0 0 0 0 0 0 0 0 0 0 0 0 0
0 0 0 0 0 0 -0 -0 -0 -0 0 0 0 0 0 0 0 0 0 0 0 0 0 0 0 0 0 0 0 0 0 0 0 0 0 0 0 0 0 0 0 0 0
0 0 0 0 0 0 0 0 -0 -0 -0 -0 0 0 0 0 0 0 0 0 0 0 0 0 0 0 0 0 0 0 0 0 0 0 0 0 0 0 0 0 0 0 0
Wind_Speed_500mb
28 36 43 41 39 38 38 35 32 29 28 26 24 22 20 16 14 12 11 11 10 10 10 11 12 11 10 5 1 1 2 3 5 7 8 8 9 11 12 13 15 14 16
32 37 42 42 40 37 37 35 32 30 29 29 27 26 24 19 16 13 13 13 13 14 14 13 14 12 8 2 1 2 3 1 1 4 6 4 2 4 7 7 9 10 9
31 38 42 42 41 38 36 34 33 31 29 27 26 23 21 21 18 16 15 15 15 15 12 9 9 9 8 5 4 4 4 5 4 7 16 4 4 2 3 4 6 6 3
29 40 44 44 42 41 38 34 33 32 30 29 27 26 24 24 23 21 20 21 22 21 17 14 13 14 12 11 10 9 6 5 6 8 7 8 8 8 7 7 7 5 3
26 41 43 46 44 41 40 38 36 34 31 29 28 28 30 31 30 28 27 27 25 26 21 18 20 18 17 15 14 15 13 10 7 8 6 6 1 15 11 10 7 6 7
28 35 42 44 47 42 41 39 39 38 35 31 31 31 37 31 29 26 25 26 27 25 23 22 21 19 17 14 14 15 14 14 14 10 5 9 19 12 11 8 8 6 7
29 35 41 42 46 48 43 42 41 40 37 33 35 33 28 25 25 24 24 27 26 25 23 22 19 15 11 8 7 8 10 12 16 16 14 14 20 18 13 14 11 10 8
29 36 41 42 46 47 49 47 45 42 39 42 41 44 28 25 25 25 26 26 24 22 21 19 13 9 8 7 7 6 6 7 12 14 16 25 19 23 22 19 16 16 15
30 36 42 43 47 48 49 51 51 49 46 49 47 48 33 29 27 26 27 25 24 23 20 16 14 12 10 10 8 7 7 8 9 11 14 20 18 21 21 21 20 21 21
31 37 42 45 49 51 52 50 49 52 55 54 53 44 36 32 29 28 28 27 26 25 22 20 17 13 11 10 11 11 10 9 10 11 18 17 18 20 20 21 22 23 23
36 41 44 47 48 49 52 54 53 55 58 59 57 53 45 37 35 35 33 33 30 28 25 22 19 16 15 14 14 13 14 13 14 15 19 16 18 20 19 19 22 23 24
41 44 47 49 51 51 49 49 60 63 65 65 64 61 53 44 41 39 38 37 36 33 30 28 23 20 18 15 15 15 14 13 14 16 16 17 19 20 21 20 21 23 23
40 47 49 52 53 55 57 59 63 69 71 70 69 67 58 50 48 45 43 42 42 37 34 30 26 24 21 19 16 15 14 15 15 16 16 18 19 20 20 21 24 25 24
41 44 49 54 59 61 62 68 64 67 69 71 71 66 62 61 56 50 50 48 49 45 42 38 33 29 26 22 20 18 17 17 17 17 17 18 18 19 19 19 22 22 21
46 48 54 55 60 62 66 69 66 67 69 71 71 66 65 63 60 55 55 53 53 50 50 43 39 35 32 28 25 22 20 18 17 18 18 18 18 19 19 19 17 17 13
44 50 52 58 58 63 69 70 71 69 69 67 74 70 69 68 65 62 60 59 57 55 52 48 44 41 37 32 29 25 22 20 19 19 19 18 19 20 20 16 12 5 21
45 40 48 51 56 60 67 70 72 74 71 73 72 71 74 71 70 67 66 65 61 60 57 54 50 47 42 37 34 30 27 24 22 20 20 20 20 21 22 17 16 17 25
37 44 46 45 52 57 63 68 72 76 78 75 75 73 76 73 74 74 71 68 66 65 62 60 56 51 46 42 39 35 32 28 26 24 23 22 21 21 25 28 32 28 31
30 32 40 48 56 60 65 68 70 70 75 76 74 77 76 76 76 80 78 74 72 71 69 67 64 58 55 50 45 41 37 33 31 28 26 26 26 26 28 28 28 38 40
12 17 25 33 40 47 55 60 66 64 70 71 72 75 75 78 77 80 82 80 79 76 75 73 69 65 61 55 50 47 44 41 37 34 32 32 30 31 29 31 35 40 33
20 11 4 15 26 31 39 48 55 64 66 66 71 72 71 76 78 80 86 86 86 82 79 77 74 70 65 59 52 47 44 45 40 40 38 38 36 35 34 34 37 36 36
40 34 24 11 5 14 23 30 34 34 43 49 56 66 75 79 82 82 84 89 91 85 84 83 81 79 71 68 59 43 27 41 48 46 46 45 42 40 38 39 42 40 38
50 48 41 30 16 4 11 20 23 30 37 34 42 54 66 72 80 86 85 88 93 91 89 88 88 87 82 78 71 43 20 23 32 47 54 50 46 44 45 46 43 40 38
43 40 40 37 32 25 13 7 13 16 22 20 30 37 49 56 65 76 85 90 95 96 95 96 94 92 88 88 77 79 61 28 20 20 42 51 52 51 51 50 48 44 42
45 46 41 39 38 34 28 18 11 13 16 19 20 32 42 44 48 51 67 81 93 101 100 101 101 100 100 96 94 87 83 63 42 28 26 40 53 57 58 57 56 51 47
46 47 47 43 43 42 35 29 21 15 15 17 17 33 35 40 46 45 50 62 76 94 101 103 104 105 103 103 102 98 96 93 87 65 48 39 48 55 64 63 64 59 53
Wind_Direction_500mb
197 195 191 191 189 183 184 189 190 189 189 195 201 206 212 211 208 204 198 198 209 234 265 285 296 306 320 351 28 349 3 32 49 61 82 76 64 67 77 71 77 83 83
190 197 195 194 196 190 191 193 197 200 198 200 205 208 215 219 222 219 219 235 253 264 275 289 285 282 290 298 263 178 191 206 103 84 71 72 126 73 60 55 56 80 97
193 198 198 200 199 196 196 198 199 203 208 209 215 218 211 215 222 228 240 253 261 265 273 290 294 276 281 287 269 223 190 164 143 122 95 352 324 282 325 343 354 17 73
195 197 201 203 205 203 203 202 206 210 209 214 220 230 232 230 230 237 244 250 255 261 262 279 279 277 277 272 266 257 240 215 186 159 112 130 293 292 283 304 315 319 308
200 197 205 208 209 209 210 209 210 214 221 225 234 243 244 236 234 233 237 242 248 257 271 277 277 277 274 270 266 260 252 245 220 199 168 129 266 290 281 277 286 297 284
207 205 213 210 212 213 215 216 217 216 219 227 235 242 250 235 226 231 228 234 242 256 267 271 271 273 269 266 259 252 246 238 232 214 164 167 185 249 258 263 283 295 283
212 209 217 213 215 216 215 217 216 215 217 219 235 239 241 228 224 226 233 243 254 261 263 264 266 265 266 265 261 256 244 231 230 225 210 188 212 212 223 260 275 276 280
218 218 217 215 216 219 220 216 217 218 214 217 228 241 236 233 230 232 242 248 251 254 258 261 251 245 251 260 264 260 246 234 231 235 226 235 249 237 257 266 266 266 271
221 226 220 218 217 219 221 223 223 220 215 221 224 237 243 242 239 237 239 239 241 244 243 237 239 241 247 256 264 266 259 246 245 242 231 248 256 256 263 268 268 267 271
231 232 225 222 222 220 219 221 223 219 218 221 228 238 246 244 242 242 242 241 238 234 227 226 231 238 247 262 269 269 263 259 258 244 245 263 261 261 263 269 272 271 271
238 233 228 226 224 223 222 221 218 218 220 225 232 238 247 239 236 235 233 235 232 226 226 228 230 235 240 240 244 250 255 258 256 255 260 263 266 272 272 269 271 273 276
248 244 234 231 229 224 223 223 222 220 222 227 233 238 242 233 232 231 231 229 225 222 223 225 226 229 234 236 235 239 244 250 255 260 265 264 264 266 273 277 278 276 279
257 246 244 237 233 229 223 229 229 226 227 229 234 238 238 232 229 228 230 225 225 223 224 227 226 232 236 241 242 245 249 254 259 260 265 264 261 261 264 271 273 279 287
243 244 247 239 236 234 230 234 234 233 231 229 235 237 233 229 229 228 227 224 224 223 225 226 226 231 234 236 240 246 251 258 265 271 272 270 269 266 262 259 268 276 282
247 239 243 244 239 237 236 234 237 234 234 232 234 238 230 232 232 231 229 229 226 225 224 225 226 227 229 231 233 237 243 252 261 270 276 274 272 268 262 261 271 276 292
265 251 246 245 244 239 239 239 240 238 239 236 236 239 236 235 234 234 233 231 229 228 228 227 227 228 228 230 232 236 241 248 256 263 271 273 269 265 259 251 240 222 180
274 268 254 250 248 244 244 243 240 242 240 241 240 238 240 235 235 236 235 234 233 232 230 229 229 229 230 230 232 235 240 246 252 258 264 265 262 256 250 228 184 184 219
263 259 258 258 254 251 247 248 244 241 243 240 243 241 241 238 235 236 236 236 235 234 232 231 231 230 232 234 236 238 241 246 254 259 260 258 254 248 240 238 211 188 227
260 254 258 255 253 251 248 243 245 243 241 243 241 242 242 242 237 237 238 238 238 237 234 232 232 232 232 232 233 238 240 243 247 249 251 248 241 236 236 229 226 224 237
266 249 245 247 251 253 249 245 242 243 244 241 242 242 243 244 240 238 239 239 239 238 235 232 233 230 230 231 231 234 238 242 244 246 248 248 245 240 238 226 219 224 235
59 54 287 256 258 249 247 243 244 244 247 245 244 243 242 245 244 240 240 240 240 240 239 237 234 231 228 228 227 230 234 240 242 244 247 247 245 239 236 231 230 233 234
50 61 62 50 297 272 244 250 245 247 247 249 250 247 245 244 245 243 241 242 244 242 239 237 235 232 227 228 226 230 234 242 240 238 240 239 237 233 231 232 234 236 240
42 41 43 44 44 3 268 256 253 242 249 250 257 252 250 250 250 248 245 243 245 245 245 243 238 235 233 231 225 222 211 225 233 236 239 238 239 235 236 235 236 238 240
52 52 47 43 42 35 17 305 263 259 273 280 266 269 260 259 255 253 251 246 246 246 245 246 244 241 236 237 228 225 225 207 204 228 236 234 235 234 234 234 235 240 241
46 45 46 44 42 41 35 23 346 319 291 264 262 273 276 274 271 263 258 254 249 247 245 246 245 241 239 239 238 234 229 228 223 219 224 232 233 233 235 234 234 239 239
47 42 36 32 41 39 35 26 16 353 328 308 276 277 278 283 283 279 272 264 257 253 250 247 247 245 242 240 241 238 238 232 230 227 228 237 240 238 235 235 238 240 241
Wind_Speed_850mb
28 36 43 41 39 38 38 35 32 29 28 26 24 22 20 16 14 12 11 11 10 10 10 11 12 11 10 5 1 1 2 3 5 7 8 8 9 11 12 13 15 14 16
32 37 42 42 40 37 37 35 32 30 29 29 27 26 24 19 16 13 13 13 13 14 14 13 14 12 8 2 1 2 3 1 1 4 6 4 2 4 7 7 9 10 9
31 38 42 42 41 38 36 34 33 31 29 27 26 23 21 21 18 16 15 15 15 15 12 9 9 9 8 5 4 4 4 5 4 7 16 4 4 2 3 4 6 6 3
29 40 44 44 42 41 38 34 33 32 30 29 27 26 24 24 23 21 20 21 22 21 17 14 13 14 12 11 10 9 6 5 6 8 7 8 8 8 7 7 7 5 3
26 41 43 46 44 41 40 38 36 34 31 29 28 28 30 31 30 28 27 27 25 26 21 18 20 18 17 15 14 15 13 10 7 8 6 6 1 15 11 10 7 6 7
28 35 42 44 47 42 41 39 39 38 35 31 31 31 37 31 29 26 25 26 27 25 23 22 21 19 17 14 14 15 14 14 14 10 5 9 19 12 11 8 8 6 7
29 35 41 42 46 48 43 42 41 40 37 33 35 33 28 25 25 24 24 27 26 25 23 22 19 15 11 8 7 8 10 12 16 16 14 14 20 18 13 14 11 10 8
29 36 41 42 46 47 49 47 45 42 39 42 41 44 28 25 25 25 26 26 24 22 21 19 13 9 8 7 7 6 6 7 12 14 16 25 19 23 22 19 16 16 15
30 36 42 43 47 48 49 51 51 49 46 49 47 48 33 29 27 26 27 25 24 23 20 16 14 12 10 10 8 7 7 8 9 11 14 20 18 21 21 21 20 21 21
31 37 42 45 49 51 52 50 49 52 55 54 53 44 36 32 29 28 28 27 26 25 22 20 17 13 11 10 11 11 10 9 10 11 18 17 18 20 20 21 22 23 23
36 41 44 47 48 49 52 54 53 55 58 59 57 53 45 37 35 35 33 33 30 28 25 22 19 16 15 14 14 13 14 13 14 15 19 16 18 20 19 19 22 23 24
41 44 47 49 51 51 49 49 60 63 65 65 64 61 53 44 41 39 38 37 36 33 30 28 23 20 18 15 15 15 14 13 14 16 16 17 19 20 21 20 21 23 23
40 47 49 52 53 55 57 59 63 69 71 70 69 67 58 50 48 45 43 42 42 37 34 30 26 24 21 19 16 15 14 15 15 16 16 18 19 20 20 21 24 25 24
41 44 49 54 59 61 62 68 64 67 69 71 71 66 62 61 56 50 50 48 49 45 42 38 33 29 26 22 20 18 17 17 17 17 17 18 18 19 19 19 22 22 21
46 48 54 55 60 62 66 69 66 67 69 71 71 66 65 63 60 55 55 53 53 50 50 43 39 35 32 28 25 22 20 18 17 18 18 18 18 19 19 19 17 17 13
44 50 52 58 58 63 69 70 71 69 69 67 74 70 69 68 65 62 60 59 57 55 52 48 44 41 37 32 29 25 22 20 19 19 19 18 19 20 20 16 12 5 21
45 40 48 51 56 60 67 70 72 74 71 73 72 71 74 71 70 67 66 65 61 60 57 54 50 47 42 37 34 30 27 24 22 20 20 20 20 21 22 17 16 17 25
37 44 46 45 52 57 63 68 72 76 78 75 75 73 76 73 74 74 71 68 66 65 62 60 56 51 46 42 39 35 32 28 26 24 23 22 21 21 25 28 32 28 31
30 32 40 48 56 60 65 68 70 70 75 76 74 77 76 76 76 80 78 74 72 71 69 67 64 58 55 50 45 41 37 33 31 28 26 26 26 26 28 28 28 38 40
12 17 25 33 40 47 55 60 66 64 70 71 72 75 75 78 77 80 82 80 79 76 75 73 69 65 61 55 50 47 44 41 37 34 32 32 30 31 29 31 35 40 33
20 11 4 15 26 31 39 48 55 64 66 66 71 72 71 76 78 80 86 86 86 82 79 77 74 70 65 59 52 47 44 45 40 40 38 38 36 35 34 34 37 36 36
40 34 24 11 5 14 23 30 34 34 43 49 56 66 75 79 82 82 84 89 91 85 84 83 81 79 71 68 59 43 27 41 48 46 46 45 42 40 38 39 42 40 38
50 48 41 30 16 4 11 20 23 30 37 34 42 54 66 72 80 86 85 88 93 91 89 88 88 87 82 78 71 43 20 23 32 47 54 50 46 44 45 46 43 40 38
43 40 40 37 32 25 13 7 13 16 22 20 30 37 49 56 65 76 85 90 95 96 95 96 94 92 88 88 77 79 61 28 20 20 42 51 52 51 51 50 48 44 42
45 46 41 39 38 34 28 18 11 13 16 19 20 32 42 44 48 51 67 81 93 101 100 101 101 100 100 96 94 87 83 63 42 28 26 40 53 57 58 57 56 51 47
46 47 47 43 43 42 35 29 21 15 15 17 17 33 35 40 46 45 50 62 76 94 101 103 104 105 103 103 102 98 96 93 87 65 48 39 48 55 64 63 64 59 53
Wind_Direction_850mb
197 195 191 191 189 183 184 189 190 189 189 195 201 206 212 211 208 204 198 198 209 234 265 285 296 306 320 351 28 349 3 32 49 61 82 76 64 67 77 71 77 83 83
190 197 195 194 196 190 191 193 197 200 198 200 205 208 215 219 222 219 219 235 253 264 275 289 285 282 290 298 263 178 191 206 103 84 71 72 126 73 60 55 56 80 97
193 198 198 200 199 196 196 198 199 203 208 209 215 218 211 215 222 228 240 253 261 265 273 290 294 276 281 287 269 223 190 164 143 122 95 352 324 282 325 343 354 17 73
195 197 201 203 205 203 203 202 206 210 209 214 220 230 232 230 230 237 244 250 255 261 262 279 279 277 277 272 266 257 240 215 186 159 112 130 293 292 283 304 315 319 308
200 197 205 208 209 209 210 209 210 214 221 225 234 243 244 236 234 233 237 242 248 257 271 277 277 277 274 270 266 260 252 245 220 199 168 129 266 290 281 277 286 297 284
207 205 213 210 212 213 215 216 217 216 219 227 235 242 250 235 226 231 228 234 242 256 267 271 271 273 269 266 259 252 246 238 232 214 164 167 185 249 258 263 283 295 283
212 209 217 213 215 216 215 217 216 215 217 219 235 239 241 228 224 226 233 243 254 261 263 264 266 265 266 265 261 256 244 231 230 225 210 188 212 212 223 260 275 276 280
218 218 217 215 216 219 220 216 217 218 214 217 228 241 236 233 230 232 242 248 251 254 258 261 251 245 251 260 264 260 246 234 231 235 226 235 249 237 257 266 266 266 271
221 226 220 218 217 219 221 223 223 220 215 221 224 237 243 242 239 237 239 239 241 244 243 237 239 241 247 256 264 266 259 246 245 242 231 248 256 256 263 268 268 267 271
231 232 225 222 222 220 219 221 223 219 218 221 228 238 246 244 242 242 242 241 238 234 227 226 231 238 247 262 269 269 263 259 258 244 245 263 261 261 263 269 272 271 271
238 233 228 226 224 223 222 221 218 218 220 225 232 238 247 239 236 235 233 235 232 226 226 228 230 235 240 240 244 250 255 258 256 255 260 263 266 272 272 269 271 273 276
248 244 234 231 229 224 223 223 222 220 222 227 233 238 242 233 232 231 231 229 225 222 223 225 226 229 234 236 235 239 244 250 255 260 265 264 264 266 273 277 278 276 279
257 246 244 237 233 229 223 229 229 226 227 229 234 238 238 232 229 228 230 225 225 223 224 227 226 232 236 241 242 245 249 254 259 260 265 264 261 261 264 271 273 279 287
243 244 247 239 236 234 230 234 234 233 231 229 235 237 233 229 229 228 227 224 224 223 225 226 226 231 234 236 240 246 251 258 265 271 272 270 269 266 262 259 268 276 282
247 239 243 244 239 237 236 234 237 234 234 232 234 238 230 232 232 231 229 229 226 225 224 225 226 227 229 231 233 237 243 252 261 270 276 274 272 268 262 261 271 276 292
265 251 246 245 244 239 239 239 240 238 239 236 236 239 236 235 234 234 233 231 229 228 228 227 227 228 228 230 232 236 241 248 256 263 271 273 269 265 259 251 240 222 180
274 268 254 250 248 244 244 243 240 242 240 241 240 238 240 235 235 236 235 234 233 232 230 229 229 229 230 230 232 235 240 246 252 258 264 265 262 256 250 228 184 184 219
263 259 258 258 254 251 247 248 244 241 243 240 243 241 241 238 235 236 236 236 235 234 232 231 231 230 232 234 236 238 241 246 254 259 260 258 254 248 240 238 211 188 227
260 254 258 255 253 251 248 243 245 243 241 243 241 242 242 242 237 237 238 238 238 237 234 232 232 232 232 232 233 238 240 243 247 249 251 248 241 236 236 229 226 224 237
266 249 245 247 251 253 249 245 242 243 244 241 242 242 243 244 240 238 239 239 239 238 235 232 233 230 230 231 231 234 238 242 244 246 248 248 245 240 238 226 219 224 235
59 54 287 256 258 249 247 243 244 244 247 245 244 243 242 245 244 240 240 240 240 240 239 237 234 231 228 228 227 230 234 240 242 244 247 247 245 239 236 231 230 233 234
50 61 62 50 297 272 244 250 245 247 247 249 250 247 245 244 245 243 241 242 244 242 239 237 235 232 227 228 226 230 234 242 240 238 240 239 237 233 231 232 234 236 240
42 41 43 44 44 3 268 256 253 242 249 250 257 252 250 250 250 248 245 243 245 245 245 243 238 235 233 231 225 222 211 225 233 236 239 238 239 235 236 235 236 238 240
52 52 47 43 42 35 17 305 263 259 273 280 266 269 260 259 255 253 251 246 246 246 245 246 244 241 236 237 228 225 225 207 204 228 236 234 235 234 234 234 235 240 241
46 45 46 44 42 41 35 23 346 319 291 264 262 273 276 274 271 263 258 254 249 247 245 246 245 241 239 239 238 234 229 228 223 219 224 232 233 233 235 234 234 239 239
47 42 36 32 41 39 35 26 16 353 328 308 276 277 278 283 283 279 272 264 257 253 250 247 247 245 242 240 241 238 238 232 230 227 228 237 240 238 235 235 238 240 241